Overview Statistics Trail Chart Weather Telemetry Raw packets
 

This is the latest recevied weather packets stored in our database for station/object HI3LT-13. If no packets are shown the sender has not sent any weather packets the latest 10 day(s).

<< 43 44 45 46 47 48 49 >>
Time Temp. Humidity Pressure Rain* Wind** Luminosity Snow
1787956759 30° C 70% 1014 hPa 0 mm - - -
1787956158 32.22° C 58% 1013 hPa 0 mm - - -
1787955558 32.78° C 49% 1013 hPa 0 mm - - -
1787954957 33.33° C 48% 1013 hPa 0 mm - - -
1787954357 33.33° C 52% 1013 hPa 0 mm - - -
1787953756 33.33° C 51% 1013 hPa 0 mm - - -
1787953156 33.33° C 51% 1013 hPa 0 mm - - -
1787952555 33.89° C 50% 1012 hPa 0 mm - - -
1787951954 34.44° C 49% 1012 hPa 0 mm - - -
1787951353 35.56° C 43% 1012 hPa 0 mm - - -
1787950753 34.44° C 50% 1012 hPa 0 mm - - -
1787950152 34.44° C 50% 1012 hPa 0 mm - - -
1787949552 34.44° C 50% 1012 hPa 0 mm - - -
1787948951 34.44° C 48% 1012 hPa 0 mm - - -
1787948350 34.44° C 48% 1012 hPa 0 mm - - -
1787947750 35.56° C 41% 1012 hPa 0 mm - - -
1787947149 34.44° C 48% 1012 hPa 0 mm - - -
1787946548 34.44° C 48% 1012 hPa 0 mm - - -
1787945948 34.44° C 48% 1013 hPa 0 mm - - -
1787945347 34.44° C 48% 1013 hPa 0 mm - - -
1787944747 34.44° C 48% 1013 hPa 0 mm - - -
1787944146 35.56° C 41% 1013 hPa 0 mm - - -
1787943545 34.44° C 48% 1013 hPa 0 mm - - -
1787942952 34.44° C 48% 1013 hPa 0 mm - - -
1787942344 34.44° C 48% 1013 hPa 0 mm - - -

* Rain latest hour (hover to see other rain measurements)
** Current wind speed in m/s (hover to see current wind gust speed)